Preview of NWS' New Version of Forecast
This preview is not operational and should not be used for support decisions.
Latest weather observations around

Bakersfield, Meadows Field Airport (KBFL)

Using English Units (Switch to International System of Units)
Date/ Time (PDT) Wind (mph) Vis. (mi) Weather Sky Cond. Temp (°F) Rel. Humidity Wind Chill (°F) Heat Index (°F) Pressure Precip. (in)
Air Dwpt 6 hour Altimeter (inHg) Sea level (inHg) 1 hr 3 hr 6 hr
Max Min
Oct 15 13:54 NW 11 10 Clear CLR 80 23     12%   78 30.09 30.07      
Oct 15 12:54 WSW 6 10 Clear CLR 78        %     30.11 30.09      
Oct 15 11:54 3 10 Clear CLR 78        %     30.12 30.11      
Oct 15 10:54 S 9 10 Clear CLR 76        %     30.13 30.11      
Oct 15 09:54 SSE 11 10 Clear CLR 73        %     30.13 30.11      
Oct 15 08:54 S 9 10 Clear CLR 70 14     11%     30.13 30.11      
Oct 15 07:54 SSE 13 10 Clear CLR 67 14     13%     30.11 30.1      
Oct 15 06:54   10 Clear CLR 67        %     30.08 30.07      
Oct 15 05:54   8 Clear CLR 68        %     30.07 30.05      
Oct 15 04:54 SSE 7 10 Clear CLR 65 22     19%     30.05 30.03      
Oct 15 03:54 Calm 10 Clear CLR 63 39     41%     30.04 30.03      
Oct 15 02:54 SSE 3 10 Clear CLR 61 45     56%     30.05 30.03      
Oct 15 01:54 Calm 10 Clear CLR 62 44     52%     30.04 30.02      
Oct 15 00:54 S 3 10 Clear CLR 63 42     46%     30.02 30      
Oct 14 23:54 Calm 10 Clear CLR 67 43     42%     29.99 29.98      
Oct 14 22:54 NNE 6 10 Mostly Clear FEW100 69 41     36%     29.98 29.96      
Oct 14 21:54 ENE 6 10 Clear   73 43     34%   72 29.96 29.94      
Oct 14 20:54 NNE 6 10 Clear CLR 74 42     32%   73 29.93 29.92      
Oct 14 19:54 N 7 10 Clear CLR 71 42     35%   70 29.91 29.9      
Oct 14 18:54 N 6 10 Clear CLR 75 42     31%   74 29.88 29.87      
Oct 14 17:54 NNW 7 10 Clear CLR 81 41     24%   80 29.87 29.85      
Oct 14 16:54 NW 9 10 Clear CLR 82 43     25%   80 29.86 29.85      
Oct 14 15:54 NW 9 10 Clear CLR 83 43     24%   81 29.87 29.85      
Oct 14 14:54 NW 9 10 Clear CLR 82 43     25%   80 29.87 29.85      
Oct 14 13:54 NNW 10 10 Clear CLR 82 44     26%   80 29.88 29.87      
Oct 14 12:54 NW 13 10 Clear CLR 80 45     29%   79 29.9 29.88      
Oct 14 11:54 Calm 10 Clear CLR 78 40     26%   77 29.92 29.9      
Oct 14 10:54 Calm 10 Clear CLR 76 38     25%   74 29.93 29.91      
Oct 14 09:54 Calm 10 Clear CLR 73 38     28%   71 29.92 29.91      
Oct 14 08:54 Calm 10 Clear CLR 70 41     35%     29.92 29.91      
Oct 14 07:54 NE 6 10 Clear CLR 63 37     38%     29.9 29.88      
Oct 14 06:54 NNE 3 10 Clear CLR 57 35     44%     29.88 29.87      
Oct 14 05:54 Calm 10 Clear CLR 60 36     40%     29.86 29.84      
Oct 14 04:54 ESE 3 10 Clear CLR 59 38     45%     29.85 29.83      
Oct 14 03:54 E 3 10 Clear CLR 62 38     41%     29.84 29.83      
Oct 14 02:54 ESE 3 10 Clear CLR 65 38     37%     29.85 29.83      
Oct 14 01:54 Calm 10 Clear CLR 64 38     38%     29.85 29.83      
Oct 14 00:54 ENE 5 10 Clear CLR 63 38     40%     29.84 29.82      
Oct 13 23:54 SE 3 10 Clear CLR 66 39     37%     29.84 29.82      
Oct 13 22:54 NE 3 10 Clear CLR 66 39     37%     29.83 29.81      
Oct 13 21:54 Calm 10 Clear CLR 71 39     31%   69 29.83 29.81      
Oct 13 20:54 E 6 10 Clear CLR 73 35     25%   71 29.8 29.78      
Oct 13 19:54 NE 8 10 Clear CLR 72 35     26%   70 29.79 29.78      
Oct 13 18:54 N 3 10 Clear CLR 77 38     24%   76 29.78 29.77      
Oct 13 17:54 WNW 7 10 Clear CLR 82 37     20%   80 29.77 29.75      
Oct 13 16:54 WNW 9 10 Clear CLR 83 38     20%   81 29.77 29.75      
Oct 13 15:54 NW 8 10 Clear CLR 83 39     21%   81 29.78 29.76      
Oct 13 14:54 WNW 6 10 Clear CLR 82 40     22%   80 29.78 29.77      
Oct 13 13:54 WNW 8 10 Clear CLR 82 41     23%   80 29.8 29.79      
Oct 13 12:54 NNW 7 10 Clear CLR 80 49     34%   79 29.83 29.81      
Oct 13 11:54 Calm 10 Clear CLR 77 48     36%   76 29.84 29.83      
Oct 13 10:54 3 10 Clear CLR 75 47     37%   74 29.85 29.84      
Oct 13 09:54 S 6 10 Clear CLR 71 47     42%   70 29.86 29.84      
Oct 13 08:54 SE 7 10 Clear CLR 68 48     49%     29.86 29.84      
Oct 13 07:54 E 6 10 Clear CLR 64 47     54%     29.84 29.83      
Oct 13 06:54 Calm 10 Clear CLR 60 47     62%     29.83 29.82      
Oct 13 02:54 SE 3 10 Clear CLR 61 48     62%     29.83 29.81      
Oct 12 21:54 E 6 10 Clear CLR 70 50     49%     29.82 29.8      
Oct 12 18:54 NW 3 10 Mostly Clear FEW110 74 49     41%   73 29.8 29.78      
Oct 12 14:54 NNW 5 10 Clear CLR 78 50     37%   77 29.8 29.78      
Oct 12 08:54 Calm 10 Clear CLR 62 48     60%     29.91 29.89      
Oct 12 07:54 ESE 3 10 Mostly Cloudy BKN100 60 47     62%     29.9 29.89      
Oct 12 05:54 Calm 10 Clear CLR 56 45     67%     29.87 29.85      
Oct 12 03:54 NE 3 10 Clear CLR 58 46     65%     29.85 29.84      
Oct 11 14:54 NNW 10 10 Clear CLR 72 49     44%   71 29.78 29.77      
Oct 11 07:54 NNE 7 10 Clear CLR 60 48     64%     29.86 29.85      
Oct 11 05:54 N 8 10 Clear CLR 59 47     64%     29.82 29.8      
Notice The following observation data may not be complete
Oct 11 04:54 N 7 10 Clear CLR   47      %     29.8 29.78      
Oct 10 14:54 NW 11 10 Clear CLR 79 47     32%   78 29.72 29.7      
Oct 10 10:54 N 7 10 Clear CLR 73 47     39%   72 29.8 29.79      
Oct 09 21:54 N 6 10 Clear   68 42     39%     29.75 29.73      
Oct 09 15:54 WNW 14 10 Clear CLR 83 36     19%   80 29.73 29.71      
Oct 09 14:54 NW 9 10 Clear CLR 82 37     20%   80 29.75 29.73      
Oct 09 12:54 NNW 7 10 Clear CLR 81 38     21%   80 29.79 29.77      
Oct 09 09:54 SSE 6 10 Clear CLR 72 38     29%   70 29.82 29.81      
Oct 08 20:54 NE 6 10 Clear CLR 70 38     31%     29.77 29.75      
Oct 08 10:54 Calm 10 Clear CLR 73 43     34%   72 29.84 29.83      
Oct 08 09:54 Calm 10 Clear CLR 71 42     35%   70 29.85 29.83      
Oct 08 07:54 SSE 3 10 Clear CLR 59 44     58%     29.84 29.83      
Oct 08 06:54 SSE 6 10 Clear CLR 57 43     59%     29.83 29.81      
Oct 08 01:54 SE 3 10 Clear CLR 61 45     56%     29.83 29.81      
Oct 07 14:54 7 10 Clear CLR 76 46     35%   75 29.8 29.78      
Oct 07 08:54 W 5 10 Clear CLR 63 45     52%     29.85 29.84      
Oct 07 04:54 Calm 10 Clear CLR 61 48     62%     29.79 29.78      
Oct 07 02:54 E 6 10 Clear CLR 63 49     60%     29.79 29.78      
Oct 06 16:54 WNW 8 10 Clear CLR 77 50     39%   76 29.76 29.74      
Oct 06 12:54 NW 7 10 Clear CLR 72 52     49%   71 29.86 29.85      
Oct 06 08:54 Calm 8 Cloudy BKN048 OVC060 64 53     67%     29.91 29.9      
Oct 06 01:54 Calm 10 Clear CLR 64 52     65%     29.93 29.91      
Oct 06 00:54 Calm 10 Clear CLR 65 51     61%     29.94 29.93      
Oct 05 22:54 NE 3 10 Clear CLR 67 51     57%     29.96 29.95      
Oct 05 13:54 5 10 Mostly Clear FEW041 76 54     47%   75 30.01 30      
Oct 05 11:54 3 10 Partly Cloudy SCT029 72 56     57%   72 30.06 30.05      
Oct 05 10:38 ESE 3 8 Partly Cloudy SCT022 68 56     65%     30.08        
Oct 05 10:27 Calm 8 Mostly Cloudy BKN020 67 56     68%     30.09        
Oct 05 09:54 Calm 6 Haze FEW015 65 56     73%     30.09 30.08      
Oct 05 05:54 NNW 3 8 Clear CLR 59 54     83%     30.03 30.02      
Oct 05 04:54 NNW 5 8 Clear CLR 59 55     87%     30.01 30      
Oct 05 03:54 NW 5 9 Mostly Clear FEW048 60 55     83%     30 29.98      
Oct 05 02:54 NW 6 8 Clear CLR 61 56     83%     30 29.98      
Oct 05 01:54 NNW 7 9 Clear CLR 62 56     80%     30 29.98      
Oct 05 00:54 NW 8 10 Mostly Clear FEW060 65 57     76%     29.99 29.97      
Oct 04 23:54 NNW 9 10 Clear CLR 66 57     73%     29.98 29.96      
Oct 04 22:54 NNW 8 10 Clear CLR 67 55     66%     29.98 29.96      
Oct 04 21:54 NW 11 10 Clear CLR 68 54     61%     29.95 29.94      
Oct 04 20:54 NNW 5 10 Clear CLR 70 53     55%     29.93 29.92      
Oct 04 19:54 N 3 10 Clear CLR 73 53     50%   72 29.92 29.9      
Oct 04 18:54 NNW 8 10 Clear CLR 74 53     48%   73 29.92 29.9      
Oct 04 17:54 NW 11 10 Clear CLR 78 52     40%   77 29.91 29.9      
Oct 04 16:54 WNW 9 10 Clear CLR 78 53     42%   78 29.92 29.91      
Oct 04 15:54 NNW 15 10 Clear CLR 80 54     41%   80 29.92 29.91      
Oct 04 14:54 N 10 10 Mostly Clear FEW050 79 53     41%   78 29.93 29.91      
Oct 04 13:54 NNW 8 10 Clear CLR 79 54     42%   79 29.94 29.93      
Oct 04 12:54 5 10 Mostly Cloudy SCT043 BKN050 77 55     47%   77 29.97 29.95      
Oct 04 11:54 N 9 10 Mostly Clear FEW037 77 56     48%   77 29.98 29.97      
Oct 04 10:54 WNW 6 10 Partly Cloudy FEW034 SCT060 74 55     52%   73 30 29.98      
Oct 04 09:54 Calm 10 Mostly Clear FEW029 71 57     61%   71 30 29.98      
Oct 04 08:54 Calm 10 Clear CLR 68 58     70%     29.99 29.97      
Oct 04 07:54 Calm 10 Clear CLR 65 58     78%     29.97 29.96      
Oct 04 06:54 E 3 10 Clear CLR 64 57     78%     29.96 29.95      
Oct 04 05:54 Calm 10 Clear CLR 63 57     81%     29.95 29.93      
Oct 04 04:54 WNW 5 10 Mostly Cloudy BKN050 64 57     78%     29.94 29.92      
Oct 04 03:54 WNW 6 10 Mostly Clear FEW060 64 57     78%     29.93 29.91      
Oct 04 02:54 W 6 10 Mostly Cloudy SCT048 BKN060 BKN095 66 57     73%     29.94 29.92      
Oct 04 01:54 NNW 3 10 Cloudy OVC060 69 56     63%     29.94 29.93      
Oct 04 00:54 N 8 10 Cloudy OVC050 68 56     65%     29.94 29.92      
Oct 03 23:54 NNE 8 10 Mostly Clear FEW048 68 57     68%     29.93 29.91      
Sep 25 06:54 Calm 9 Clear CLR 66        %     29.89 29.87      
Sep 25 05:54 Calm 10 Clear CLR 64        %     29.87 29.85      
May 13 14:54 WNW 10 10 Clear CLR 80 45     29%   79 29.91 29.89      
May 12 17:54 WNW 17 10 Clear CLR 82 38     21%   80 29.8 29.79      
May 12 12:54 WSW 6 10 Clear CLR 78 41     27%   77 29.87 29.85      
May 12 00:54 E 6 10 Clear CLR 67 43     42%     29.76 29.74      
Jun 11 23:54 N 18 10 Mostly Cloudy BKN080 61 42     50%     29.98 29.97      
Jun 11 09:54 NNW 13 10 Mostly Clear FEW039 64 43     46%     29.93 29.92      
Jun 11 07:54 NNW 15 10 Clear CLR 61 44     54%     29.91 29.9      
Jun 10 21:54 N 6 10 Clear CLR 71 46     41%   70 29.84 29.82      
Jun 10 18:54 NW 10 10 Clear CLR 77 46     33%   76 29.82 29.8      
Jun 10 15:54 W 10 10 Clear CLR 77 47     35%   76 29.85 29.84      
Jun 10 08:54 NW 8 10 Cloudy OVC048 63 43     48%     29.96 29.94      
Jun 08 21:54 NW 14 10 Clear   76 48     37%   75 29.92 29.9      
Jun 08 14:01 W 10 9 Mostly Clear FEW001 87 37     17%   84 29.94        
Jun 08 11:54 W 7 10 Clear CLR 81 46     29%   80 29.97 29.95      
Jun 08 06:54 ENE 5 10 Clear CLR 69 46     44%     29.97 29.95      
Jun 07 08:54 3 10 Clear CLR 78 45     31%   77 29.87 29.85